User: anonymous   Login
Location: Azul
(36.7830°S, 59.8500°W)
Time: 22:01:37
(UTC-03:00)
Language:

NOAA 15 - Orbit

View from above orbital plane
View from above orbital plane
View from above satellite
View from above satellite

Ground track
Ground track

The orbit data is extracted from the following two-line orbital elements,

1 25338U 98030A   22220.75830721  .00000151  00000-0  81353-4 0  9993
2 25338  98.6417 249.6030 0011163 140.6282 219.5711 14.26158989260723
Epoch (UTC): 08 August 2022 18:11:57
Eccentricity: 0.0011163
inclination: 98.6417°
perigee height: 796 km
apogee height: 812 km
right ascension of ascending node: 249.6030°
argument of perigee: 140.6282°
revolutions per day: 14.26158989
mean anomaly at epoch: 219.5711°
orbit number at epoch: 26072

The dashed part of the orbit path shows where the satellite is in the earth's shadow,  

DLR